Weather History for Rabat-Sale, Morocco

Change the Weather History Date:

Monday, December 2, 2013

  Actual Average Record
Temperature  
Mean Temperature 55 °F -  
Max Temperature 66 °F 63 °F 75 °F (2001)
Min Temperature 44 °F 46 °F 42 °F (2011)
Degree Days  
Heating Degree Days 10    
Growing Degree Days 5 (Base 50)    
Moisture  
Dew Point 39 °F    
Average Humidity 60    
Maximum Humidity 87    
Minimum Humidity 23    
Precipitation  
Precipitation 0.00 in 0.13 in - ()
Sea Level Pressure  
Sea Level Pressure 29.94 in    
Wind  
Wind Speed 4 mph ()    
Max Wind Speed 9 mph    
Max Gust Speed -    
Visibility 4.5 miles    
Events      
Averages and records for this station are not official NWS values.
T = Trace of Precipitation, MM = Missing Value Source: Averaged Metar Reports

Daily Weather History Graph

Daily Weather History Graph

Search for Another Location

Airport:

Trip Planner

Search our weather history database for the weather conditions in past years. The results will help you decide how hot, cold, wet, or windy it might be!

Date:

Astronomy

Dec. 02, 2013 Rise Set
Actual Time 7:15 AM WET 5:17 PM WET
Civil Twilight 6:47 AM WET 5:44 PM WET
Nautical Twilight 6:16 AM WET 6:15 PM WET
Astronomical Twilight 5:46 AM WET 6:46 PM WET
Moon 6:27 AM WET (12/2) 5:06 PM WET (12/2)
Length of Visible Light 10h 57m
Length of Day
10h 02m
Waning Crescent, 0% of the Moon is Illuminated
Dec 2
Waning Crescent
Dec 3
New
Dec 9
First Quarter
Dec 17
Full
Dec 25
Last Quarter

Hourly Weather History & Observations

Time (WET) Temp. Windchill Dew Point Humidity Pressure Visibility Wind Dir Wind Speed Gust Speed Precip Events Conditions
12:00 AM 49 °F - 36 °F 50% 29.95 in 4 mi Calm Calm - -   Partly Cloudy
12:00 AM 48.2 °F - 35.6 °F 62% 29.92 in 3.7 mi Calm Calm - N/A   Scattered Clouds
12:30 AM 48.2 °F - 35.6 °F 62% 29.92 in 3.7 mi East 4.6 mph - N/A   Scattered Clouds
1:00 AM 48.2 °F - 37.4 °F 66% 29.92 in 3.7 mi East 6.9 mph - N/A   Scattered Clouds
1:30 AM 50.0 °F - 37.4 °F 62% 29.92 in 3.7 mi East 9.2 mph - N/A   Scattered Clouds
2:00 AM 50.0 °F - 37.4 °F 62% 29.92 in 3.7 mi ENE 9.2 mph - N/A   Scattered Clouds
2:30 AM 50.0 °F - 37.4 °F 62% 29.92 in 3.7 mi ENE 8.1 mph - N/A   Scattered Clouds
3:00 AM 48 °F - 38 °F 58% 29.92 in 4 mi East 8.1 mph - -   Partly Cloudy
3:00 AM 48.2 °F - 37.4 °F 66% 29.92 in 3.7 mi East 8.1 mph - N/A   Scattered Clouds
3:30 AM 46.4 °F - 39.2 °F 76% 29.89 in 3.7 mi Calm Calm - N/A   Scattered Clouds
4:00 AM 46.4 °F - 39.2 °F 76% 29.89 in 3.7 mi Calm Calm - N/A   Scattered Clouds
4:30 AM 46.4 °F - 39.2 °F 76% 29.89 in 3.7 mi Calm Calm - N/A   Scattered Clouds
5:00 AM 46.4 °F - 39.2 °F 76% 29.89 in 3.7 mi Calm Calm - N/A   Scattered Clouds
5:30 AM 44.6 °F - 39.2 °F 81% 29.92 in 3.7 mi Variable 2.3 mph - N/A   Scattered Clouds
6:00 AM 45 °F - 39 °F 71% 29.93 in 4 mi East 5.8 mph - -   Partly Cloudy
6:00 AM 44.6 °F 41.4 °F 39.2 °F 81% 29.92 in 3.7 mi East 5.8 mph - N/A   Scattered Clouds
6:30 AM 46.4 °F 42.9 °F 39.2 °F 76% 29.92 in 3.7 mi ENE 6.9 mph - N/A   Scattered Clouds
7:00 AM 46.4 °F - 39.2 °F 76% 29.92 in 5.0 mi Calm Calm - N/A   Partly Cloudy
7:30 AM 48.2 °F - 39.2 °F 71% 29.92 in 5.0 mi East 8.1 mph - N/A   Partly Cloudy
8:00 AM 46.4 °F - 39.2 °F 76% 29.95 in 5.0 mi Calm Calm - N/A   Partly Cloudy
8:30 AM 48.2 °F - 39.2 °F 71% 29.95 in - East 5.8 mph - N/A   Clear
9:00 AM 51 °F - 41 °F 59% 29.97 in 6 mi East 6.9 mph - -  
9:00 AM 51.8 °F - 41.0 °F 67% 29.95 in - East 6.9 mph - N/A   Clear
9:30 AM 53.6 °F - 41.0 °F 62% 29.95 in - East 6.9 mph - N/A   Clear
10:00 AM 57.2 °F - 41.0 °F 55% 29.95 in - East 6.9 mph - N/A   Clear
10:30 AM 59.0 °F - 41.0 °F 51% 29.95 in - East 6.9 mph - N/A   Clear
11:00 AM 60.8 °F - 39.2 °F 45% 29.95 in - East 6.9 mph - N/A   Unknown
11:30 AM 60.8 °F - 39.2 °F 45% 29.95 in - East 6.9 mph - N/A   Clear
12:00 PM 62 °F - 39 °F 31% 29.95 in 6 mi ENE 6.9 mph - -  
12:00 PM 62.6 °F - 39.2 °F 42% 29.95 in - ENE 6.9 mph - N/A   Clear
12:30 PM 62.6 °F - 37.4 °F 39% 29.92 in - East 5.8 mph - N/A   Clear
1:00 PM 64.4 °F - 39.2 °F 40% 29.92 in - East 5.8 mph - N/A   Clear
1:30 PM 64.4 °F - 39.2 °F 40% 29.92 in - Variable 3.5 mph - N/A   Clear
2:00 PM 64.4 °F - 37.4 °F 37% 29.92 in - NNE 8.1 mph - N/A   Clear
2:30 PM 64.4 °F - 37.4 °F 37% 29.92 in - NE 4.6 mph - N/A   Clear
3:00 PM 66 °F - 37 °F 23% 29.93 in 6 mi East 4.6 mph - -  
3:00 PM 66.2 °F - 37.4 °F 35% 29.92 in - East 4.6 mph - N/A   Clear
3:30 PM 66.2 °F - 35.6 °F 32% 29.92 in - East 4.6 mph - N/A   Clear
4:00 PM 66.2 °F - 33.8 °F 30% 29.92 in - ENE 5.8 mph - N/A   Clear
4:30 PM 64.4 °F - 35.6 °F 34% 29.92 in - ENE 4.6 mph - N/A   Clear
5:00 PM 62.6 °F - 39.2 °F 42% 29.95 in - NE 4.6 mph - N/A   Clear
6:00 PM 55 °F - 44 °F 55% 29.97 in 5 mi Calm Calm - -   Clear
6:30 PM 55.4 °F - 44.6 °F 67% 29.95 in 5.0 mi Calm Calm - N/A   Unknown
7:00 PM 50.0 °F - 44.6 °F 82% 29.98 in 5.0 mi Calm Calm - N/A   Unknown
7:30 PM 48.2 °F - 44.6 °F 87% 29.98 in 5.0 mi Calm Calm - N/A   Unknown
8:00 PM 51.8 °F - 44.6 °F 76% 29.98 in 5.0 mi Calm Calm - N/A   Unknown
8:30 PM 50.0 °F - 41.0 °F 71% 29.98 in 5.0 mi Calm Calm - N/A   Unknown
9:00 PM 49 °F - 40 °F 62% 30.01 in 5 mi Calm Calm - -   Clear
9:00 PM 50.0 °F - 41.0 °F 71% 29.98 in 5.0 mi Calm Calm - N/A   Unknown
9:30 PM 50.0 °F - 41.0 °F 71% 30.01 in 5.0 mi SE 3.5 mph - N/A   Unknown
10:00 PM 50.0 °F - 41.0 °F 71% 30.01 in 5.0 mi SE 4.6 mph - N/A   Unknown
10:30 PM 48.2 °F - 39.2 °F 71% 30.01 in 5.0 mi Calm Calm - N/A   Unknown
11:00 PM 50.0 °F - 39.2 °F 66% 30.01 in 5.0 mi Calm Calm - N/A   Clear
11:30 PM 44.6 °F - 39.2 °F 81% 30.01 in 5.0 mi Calm Calm - N/A   Clear